Peru, IN

7:24 AM EDT on June 24, 2017 (GMT -0400)
Grissom Air Reserve Base

Weather History for KGUS - January, 2014

Change the Weather History Date:

Wednesday, January 22, 2014

  Actual Average Record
Temperature  
Mean Temperature 4 °F -  
Max Temperature 15 °F 29 °F 58 °F (2017)
Min Temperature -6 °F 16 °F -6 °F (2014)
Degree Days  
Heating Degree Days 60    
Moisture  
Dew Point 5 °F    
Average Humidity 90    
Maximum Humidity 100    
Minimum Humidity 75    
Precipitation  
Precipitation 0.00 in - - ()
Snow  
Snow 0.00 in - - ()
Snow Depth 6.00 in    
Sea Level Pressure  
Sea Level Pressure 30.02 in    
Wind  
Wind Speed 11 mph (SW)    
Max Wind Speed 23 mph    
Max Gust Speed 29 mph    
Visibility 7 miles    
Events Snow    
Averages and records for this station are not official NWS values.
T = Trace of Precipitation, MM = Missing Value Source: NWS Daily Summary

Daily Weather History Graph

Daily Weather History Graph

Search for Another Location

Airport or City:

Trip Planner

Search our weather history database for the weather conditions in past years. The results will help you decide how hot, cold, wet, or windy it might be!

Date:

Astronomy

Jan. 22, 2014 Rise Set
Actual Time 8:02 AM EST 5:50 PM EST
Civil Twilight 7:32 AM EST 6:19 PM EST
Nautical Twilight 6:59 AM EST 6:53 PM EST
Astronomical Twilight 6:27 AM EST 7:25 PM EST
Moon No Moon Rise 11:01 AM EST (1/22)
Length of Visible Light 10h 46m
Length of Day
9h 47m
Waning Gibbous, 65% of the Moon is Illuminated
Jan 22
Waning Gibbous
Jan 24
Last Quarter
Jan 30
New
Feb 6
First Quarter
Feb 14
Full

Hourly Weather History & Observations

Time (EST) Temp. Windchill Dew Point Humidity Pressure Visibility Wind Dir Wind Speed Gust Speed Precip Events Conditions
12:58 AM -3.5 °F -15.7 °F -4.7 °F 94% 30.24 in 10.0 mi SSW 5.8 mph - N/A   Clear
1:58 AM -3.5 °F -17.1 °F -5.3 °F 92% 30.24 in 10.0 mi SW 6.9 mph - N/A   Clear
2:58 AM -3.6 °F -14.1 °F -5.3 °F 93% 30.23 in 10.0 mi SSW 4.6 mph - N/A   Clear
3:58 AM -5.3 °F -13.8 °F -7.4 °F 90% 30.20 in 10.0 mi SW 3.5 mph - N/A   Clear
4:58 AM -4.9 °F -15.6 °F -7.2 °F 90% 30.17 in 10.0 mi SSE 4.6 mph - N/A   Clear
5:58 AM -6.3 °F -19.1 °F -8.7 °F 90% 30.17 in 10.0 mi SSW 5.8 mph - N/A   Clear
6:58 AM -4.2 °F -14.8 °F -6.2 °F 91% 30.15 in 10.0 mi South 4.6 mph - N/A   Overcast
7:58 AM -0.2 °F -11.8 °F -1.7 °F 94% 30.14 in 10.0 mi SSE 5.8 mph - N/A   Overcast
8:58 AM 2.3 °F -13.4 °F 1.0 °F 94% 30.11 in 10.0 mi South 10.4 mph - N/A   Overcast
9:58 AM 4.5 °F -10.7 °F 3.6 °F 96% 30.13 in 10.0 mi SSW 10.4 mph - N/A   Mostly Cloudy
10:30 AM 5.0 °F -10.8 °F 5.0 °F 100% 30.05 in 10.0 mi South 11.5 mph - N/A   Overcast
10:58 AM 7.2 °F -9.6 °F 6.1 °F 95% 30.12 in 10.0 mi SSW 13.8 mph - N/A   Mostly Cloudy
11:58 AM 9.5 °F -7.2 °F 5.4 °F 83% 30.09 in 10.0 mi SSW 15.0 mph - N/A   Mostly Cloudy
12:58 PM 10.8 °F -5.6 °F 4.1 °F 75% 30.04 in 10.0 mi SSW 15.0 mph - N/A   Mostly Cloudy
1:29 PM 10.4 °F -6.6 °F 5.0 °F 79% 29.95 in 10.0 mi SSW 16.1 mph - N/A Snow Light Snow
1:44 PM 10.4 °F -5.4 °F 6.8 °F 85% 29.94 in 4.0 mi SW 13.8 mph - N/A Snow Light Snow
1:47 PM 10.4 °F -6.6 °F 6.8 °F 85% 29.94 in 4.0 mi SW 16.1 mph - N/A Snow Light Snow
1:52 PM 10.4 °F -4.8 °F 6.8 °F 85% 29.94 in 3.0 mi SW 12.7 mph - N/A Snow Light Snow
1:58 PM 11.1 °F -3.9 °F 6.8 °F 83% 30.01 in 3.0 mi SW 12.7 mph - 0.00 in Snow Light Snow
2:03 PM 10.4 °F -6.0 °F 6.8 °F 85% 29.93 in 4.0 mi SSW 15.0 mph - N/A Snow Light Snow
2:10 PM 10.4 °F -6.6 °F 6.8 °F 85% 29.93 in 5.0 mi SW 16.1 mph - N/A Snow Light Snow
2:15 PM 10.4 °F -6.6 °F 6.8 °F 85% 29.93 in 4.0 mi SW 16.1 mph - N/A Snow Light Snow
2:20 PM 10.4 °F -6.6 °F 8.6 °F 92% 29.93 in 5.0 mi SW 16.1 mph - N/A Snow Light Snow
2:29 PM 10.4 °F -6.6 °F 8.6 °F 92% 29.93 in 4.0 mi SW 16.1 mph - N/A Snow Light Snow
2:36 PM 10.4 °F -6.6 °F 8.6 °F 92% 29.92 in 5.0 mi SW 16.1 mph - N/A Snow Light Snow
2:41 PM 10.4 °F -7.2 °F 8.6 °F 92% 29.92 in 4.0 mi SW 17.3 mph - N/A Snow Light Snow
2:51 PM 12.2 °F -4.8 °F 6.8 °F 79% 29.92 in 5.0 mi SW 17.3 mph - N/A Snow Light Snow
2:58 PM 11.3 °F -4.9 °F 7.5 °F 85% 29.99 in 5.0 mi SW 15.0 mph - 0.00 in Snow Light Snow
3:51 PM 12.2 °F -3.7 °F 8.6 °F 85% 29.92 in 7.0 mi SW 15.0 mph - N/A Snow Light Snow
3:58 PM 12.2 °F -4.8 °F 9.5 °F 89% 29.99 in 6.0 mi SW 17.3 mph - 0.00 in Snow Light Snow
4:52 PM 12.2 °F -2.5 °F 10.4 °F 92% 29.93 in 8.0 mi SW 12.7 mph - N/A Snow Light Snow
4:58 PM 13.1 °F -1.4 °F 11.3 °F 93% 29.99 in 7.0 mi SW 12.7 mph - 0.00 in Snow Light Snow
5:55 PM 13.6 °F 0.7 °F 12.2 °F 94% 29.99 in 10.0 mi SSW 10.4 mph - 0.00 in   Overcast
6:15 PM 14.0 °F 1.2 °F 12.2 °F 93% 29.93 in 1.0 mi SSW 10.4 mph - N/A Snow Light Snow
6:58 PM 14.5 °F -0.2 °F 14.4 °F 99% 30.01 in 3.0 mi SW 13.8 mph - 0.00 in Snow Light Snow
7:03 PM 14.0 °F -0.8 °F 14.0 °F 100% 29.94 in 3.0 mi SW 13.8 mph - N/A Snow Light Snow
7:25 PM 15.8 °F 2.1 °F 15.8 °F 100% 29.93 in 1.8 mi SW 12.7 mph - N/A Snow Light Snow
7:58 PM 15.8 °F -2.3 °F 15.3 °F 98% 29.99 in 2.0 mi West 23.0 mph 28.8 mph 0.00 in Snow Light Snow
8:38 PM 14.0 °F -3.4 °F 12.2 °F 93% 29.95 in 1.5 mi WNW 19.6 mph - N/A Snow Light Snow
8:58 PM 12.0 °F -7.3 °F 9.7 °F 90% 30.02 in 2.0 mi WNW 23.0 mph - 0.00 in Snow Light Snow
9:54 PM 10.4 °F -8.6 °F 8.6 °F 92% 29.99 in 4.0 mi WNW 20.7 mph 25.3 mph N/A   Overcast
10:58 PM 7.7 °F -9.5 °F 4.1 °F 85% 30.09 in 10.0 mi WNW 15.0 mph - 0.00 in   Scattered Clouds
11:13 PM 6.8 °F -9.3 °F 3.2 °F 85% 30.02 in 10.0 mi WNW 12.7 mph - N/A   Mostly Cloudy
11:28 PM 6.8 °F -10.7 °F 3.2 °F 85% 30.03 in 10.0 mi WNW 15.0 mph - N/A   Mostly Cloudy
11:33 PM 6.8 °F -11.3 °F 3.2 °F 85% 30.03 in 10.0 mi WNW 16.1 mph - N/A   Mostly Cloudy
11:38 PM 6.8 °F -10.7 °F 3.2 °F 85% 30.04 in 10.0 mi WNW 15.0 mph - N/A   Scattered Clouds
11:58 PM 6.4 °F -10.5 °F 3.0 °F 86% 30.12 in 10.0 mi WNW 13.8 mph - N/A   Scattered Clouds